GW6731 Weather Reports


time (UTC)temp
C
wind
direction
speed
KPH
gust
KPH
rain 1hr
cm
rain 24hr
cm
rain mn
cm
humidity
%
barometer
mb
20260504044532 10 333 20.9 37.0 0.00 0.00 0.00 41 1009.6
20260504043031 11 329 19.3 35.4 0.00 0.00 0.00 42 1009.7
20260504041531 11 360 20.9 35.4 0.00 0.00 0.00 42 1009.2
20260504040041 12 321 17.7 29.0 0.00 0.00 0.00 40 1009.2
20260504034536 12 315 14.5 27.4 0.00 0.00 0.00 39 1008.9
20260504033037 12 32 16.1 32.2 0.00 0.00 0.00 38 1008.7
20260504031537 13 330 16.1 25.7 0.00 0.00 0.00 38 1008.7
20260504030034 13 320 14.5 29.0 0.00 0.00 0.00 37 1008.4
20260504024533 13 336 12.9 25.7 0.00 0.00 0.00 39 1008.2
20260504023033 13 16 14.5 25.7 0.00 0.00 0.00 39 1008.2
20260504021550 15 42 12.9 25.7 0.00 0.00 0.00 37 1008.2
20260504020032 16 26 8.0 17.7 0.00 0.00 0.00 32 1008.3
20260504014532 17 15 8.0 20.9 0.00 0.00 0.00 30 1008.3
20260504013035 17 324 9.7 19.3 0.00 0.00 0.00 25 1008.5
20260504011534 18 342 8.0 20.9 0.00 0.00 0.00 23 1008.6
20260504010032 18 340 6.4 17.7 0.00 0.00 0.00 24 1008.6
20260504004539 19 338 11.3 22.5 0.00 0.00 0.00 23 1008.6
20260504003039 20 346 11.3 19.3 0.00 0.00 0.00 23 1008.8
20260504001538 20 292 9.7 19.3 0.00 0.00 0.00 24 1008.9
20260504000052 20 329 14.5 25.7 0.00 0.00 0.00 22 1009.0
20260503234533 21 9 12.9 24.1 0.00 0.00 0.00 22 1009.0
20260503233033 20 19 9.7 22.5 0.00 0.00 0.00 23 1009.2
20260503231532 21 290 11.3 20.9 0.00 0.00 0.00 22 1009.2
20260503230032 21 326 11.3 22.5 0.00 0.00 0.00 22 1009.3
20260503224530 21 348 9.7 24.1 0.00 0.00 0.00 23 1009.4
20260503223039 21 327 12.9 27.4 0.00 0.00 0.00 22 1009.4
20260503221546 21 264 9.7 24.1 0.00 0.00 0.00 22 1009.7
20260503220034 21 316 14.5 27.4 0.00 0.00 0.00 22 1009.7
20260503214533 21 313 9.7 24.1 0.00 0.00 0.00 23 1009.9
20260503213032 20 305 11.3 25.7 0.00 0.00 0.00 22 1010.1
20260503211533 20 301 11.3 27.4 0.00 0.00 0.00 24 1010.3
20260503210030 20 244 8.0 22.5 0.00 0.00 0.00 23 1010.4
20260503204529 20 290 8.0 25.7 0.00 0.00 0.00 24 1010.7
20260503203041 20 305 8.0 24.1 0.00 0.00 0.00 25 1010.7
20260503201536 20 305 9.7 25.7 0.00 0.00 0.00 23 1010.9
20260503200035 19 300 3.2 17.7 0.00 0.00 0.00 27 1011.1
20260503194534 19 344 12.9 22.5 0.00 0.00 0.00 25 1011.4
20260503193033 19 324 16.1 32.2 0.00 0.00 0.00 25 1011.7
20260503191530 19 319 11.3 25.7 0.00 0.00 0.00 29 1011.7
20260503190037 18 281 6.4 24.1 0.00 0.00 0.00 28 1011.9
20260503184533 17 317 4.8 16.1 0.00 0.00 0.00 28 1012.2
20260503183033 18 246 4.8 14.5 0.00 0.00 0.00 28 1012.3
20260503181532 18 277 6.4 22.5 0.00 0.00 0.00 28 1012.4
20260503180032 17 293 6.4 20.9 0.00 0.00 0.00 31 1012.5
20260503174534 18 309 9.7 19.3 0.00 0.00 0.00 28 1012.7
20260503173050 17 288 11.3 20.9 0.00 0.00 0.00 28 1012.9
20260503171537 17 346 12.9 24.1 0.00 0.00 0.00 29 1013.1
20260503081532 2 360 3.2 6.4 0.00 0.00 0.00 78 1015.8